FW5258 Weather Reports


time (UTC)temp
F
wind
direction
speed
knots
gust
knots
rain 1hr
in
rain 24hr
in
rain mn
in
humidity
%
barometer
mb
20260504200314 80 245 7.8 13.9 0.00 0.12 0.05 47 999.5
20260504195811 80 240 7.0 13.0 0.00 0.12 0.05 47 999.7
20260504195309 80 275 6.1 11.3 0.00 0.12 0.05 46 999.7
20260504194806 80 220 7.0 13.0 0.00 0.12 0.05 47 999.9
20260504194305 79 232 7.8 13.0 0.00 0.12 0.05 49 999.8
20260504194029 79 240 7.8 13.0 0.00 0.12 0.05 50 999.9
20260504193258 79 234 7.0 13.0 0.00 0.12 0.05 48 999.9
20260504192753 79 242 6.1 11.3 0.00 0.12 0.05 47 999.9
20260504192247 79 188 5.2 11.3 0.00 0.12 0.05 46 999.9
20260504191740 79 242 5.2 11.3 0.00 0.12 0.05 49 999.9
20260504191233 79 259 6.1 11.3 0.00 0.12 0.05 50 1000.0
20260504190728 79 200 6.1 9.6 0.00 0.12 0.05 48 1000.1
20260504190450 78 246 6.1 10.4 0.00 0.12 0.05 50 1000.0
20260504185716 78 223 6.1 10.4 0.00 0.12 0.05 50 1000.1
20260504185209 78 260 5.2 9.6 0.00 0.12 0.05 53 1000.0
20260504184936 78 257 7.0 11.3 0.00 0.12 0.05 50 1000.1
20260504184158 78 243 7.0 13.0 0.00 0.12 0.05 50 1000.2
20260504183652 78 227 6.1 13.0 0.00 0.12 0.05 49 1000.3
20260504183146 77 234 6.1 11.3 0.00 0.12 0.05 53 1000.3
20260504182641 77 214 7.0 13.9 0.00 0.12 0.05 50 1000.2
20260504182134 77 242 7.8 15.6 0.00 0.12 0.05 50 1000.2
20260504181627 77 217 7.8 15.6 0.00 0.12 0.05 50 1000.2
20260504181122 76 256 7.8 12.2 0.00 0.12 0.05 52 1000.1
20260504180616 76 248 7.8 12.2 0.00 0.12 0.05 50 1000.2
20260504180110 76 228 7.8 15.6 0.00 0.12 0.05 52 1000.2
20260504175605 76 250 8.7 15.6 0.00 0.12 0.05 53 1000.4
20260504175058 76 265 9.6 13.9 0.00 0.12 0.05 50 1000.3
20260504174551 75 257 9.6 13.9 0.00 0.12 0.05 52 1000.3
20260504174046 75 270 8.7 14.8 0.00 0.12 0.05 54 1000.2
20260504173539 75 259 7.0 14.8 0.00 0.12 0.05 52 1000.3
20260504173034 75 248 8.7 13.9 0.00 0.12 0.05 52 1000.3
20260504172528 75 244 8.7 13.9 0.00 0.12 0.05 50 1000.3
20260504172022 76 250 7.0 13.0 0.00 0.12 0.05 53 1000.4
20260504171516 75 208 6.1 11.3 0.00 0.12 0.05 54 1000.5
20260504171010 75 185 7.0 13.0 0.00 0.12 0.05 52 1000.5
20260504170504 74 217 7.8 13.0 0.00 0.12 0.05 54 1000.7
20260504160356 72 250 7.0 13.0 0.00 0.12 0.05 55 1000.8
20260504150856 70 236 7.0 12.2 0.00 0.12 0.05 59 1001.0
20260504150618 69 250 7.8 14.8 0.00 0.12 0.05 61 1001.1
20260504140846 67 183 4.3 11.3 0.00 0.12 0.05 63 1001.4
20260504140346 67 171 5.2 12.2 0.00 0.12 0.05 64 1001.5
20260504140105 66 236 7.0 13.9 0.00 0.12 0.05 63 1001.5
20260504130341 61 206 2.6 7.8 0.00 0.12 0.05 76 1001.7
20260504120317 55 177 0.0 0.0 0.00 0.12 0.05 80 1001.8
20260504110240 56 176 1.7 3.5 0.00 0.12 0.05 77 1001.7
20260504100127 57 180 3.5 7.0 0.00 0.12 0.05 74 1002.3
20260504081928 55 177 2.6 7.8 0.00 0.12 0.05 82 1003.9
20260504081421 55 179 0.9 6.1 0.00 0.12 0.05 82 1004.0
20260504081354 55 175 0.0 1.7 0.00 0.12 0.05 84 1004.0
20260504080410 55 175 0.0 2.6 0.00 0.12 0.05 83 1004.0
20260504070256 54 169 0.9 3.5 0.04 0.12 0.05 87 1005.2
20260504060144 55 355 0.9 3.5 0.01 0.08 0.01 85 1005.1
20260504050122 58 232 1.7 3.5 0.07 0.07 0.00 77 1005.9
20260504045621 58 232 1.7 3.5 0.06 0.06 0.06 75 1006.2
20260504045120 59 196 1.7 3.5 0.06 0.06 0.06 75 1005.7
20260504045055 59 204 1.7 4.3 0.00 0.00 0.00 73 1006.3
20260504044714 59 199 1.7 3.5 0.01 0.01 0.02 70 1006.0
20260504043620 60 172 1.7 4.3 0.00 0.00 0.00 71 1005.9
20260504043120 60 173 0.9 5.2 0.00 0.00 0.00 69 1006.2
20260504042619 60 173 1.7 5.2 0.00 0.00 0.00 69 1005.9
20260504042608 60 177 0.9 5.2 0.00 0.00 0.00 66 1006.1
20260504041620 60 173 0.0 1.7 0.00 0.00 0.00 67 1006.1
20260504041113 60 173 0.9 4.3 0.00 0.00 0.00 67 1006.0
20260504040606 60 173 2.6 6.1 0.00 0.00 0.00 66 1006.1
20260504035555 60 184 0.9 5.2 0.00 0.00 0.00 66 1006.1
20260504035049 60 214 0.9 2.6 0.00 0.00 0.00 65 1006.1
20260504034544 60 290 0.0 2.6 0.00 0.00 0.00 68 1006.2
20260504034038 60 296 0.0 0.0 0.00 0.00 0.00 65 1006.3
20260504033531 60 296 0.0 0.0 0.00 0.00 0.00 64 1006.4
20260504033252 60 296 0.0 0.0 0.00 0.00 0.00 61 1006.4
20260504032519 60 296 0.0 0.0 0.00 0.00 0.00 61 1006.4
20260504032241 60 296 0.0 0.0 0.00 0.00 0.00 63 1006.5
20260504031508 60 296 0.0 0.0 0.00 0.00 0.00 63 1006.5
20260504031002 60 296 0.0 0.0 0.00 0.00 0.00 64 1006.4
20260504030455 60 296 0.0 0.0 0.00 0.00 0.00 64 1006.4
20260504025948 60 296 0.0 0.0 0.00 0.00 0.00 65 1006.3
20260504025442 60 296 0.0 0.0 0.00 0.00 0.00 64 1006.3
20260504024936 61 296 0.0 0.0 0.00 0.00 0.00 64 1006.4
20260504024429 61 296 0.0 0.0 0.00 0.00 0.00 65 1006.4
20260504023923 62 296 0.0 0.0 0.00 0.00 0.00 64 1006.4
20260504023416 62 296 0.0 0.0 0.00 0.00 0.00 62 1006.5
20260504022910 63 296 0.0 0.0 0.00 0.00 0.00 61 1006.5
20260504022406 63 296 0.0 0.0 0.00 0.00 0.00 60 1006.4
20260504021858 64 296 0.0 0.0 0.00 0.00 0.00 59 1006.4
20260504021352 64 296 0.0 0.0 0.00 0.00 0.00 56 1006.3
20260504020847 64 294 0.0 0.0 0.00 0.00 0.00 54 1006.4
20260504020340 64 295 0.0 0.0 0.00 0.00 0.00 54 1006.4
20260504015835 65 295 0.0 0.0 0.00 0.00 0.00 55 1006.5
20260504015329 65 295 0.0 0.0 0.00 0.00 0.00 56 1006.5
20260504015043 65 295 0.0 0.0 0.00 0.00 0.00 54 1006.5
20260504014802 66 295 0.0 0.0 0.00 0.00 0.00 54 1006.7
20260504013811 66 295 0.0 0.0 0.00 0.00 0.00 53 1006.8
20260504013527 66 296 0.0 0.0 0.00 0.00 0.00 52 1006.7
20260504013016 67 296 0.0 0.0 0.00 0.00 0.00 52 1006.4
20260504012254 67 296 0.0 0.0 0.00 0.00 0.00 51 1006.3
20260504011748 67 296 0.0 0.0 0.00 0.00 0.00 50 1006.3
20260504011242 67 296 0.0 0.0 0.00 0.00 0.00 50 1006.3
20260504010957 68 295 0.0 0.0 0.00 0.00 0.00 50 1006.5
20260504010458 68 295 0.0 0.0 0.00 0.00 0.00 50 1006.4
20260504005722 68 271 0.0 0.9 0.00 0.00 0.00 51 1006.7
20260504005447 68 267 0.9 2.6 0.00 0.00 0.00 50 1006.5
20260504004711 68 268 0.9 2.6 0.00 0.00 0.00 49 1006.5
20260504004209 69 269 1.7 2.6 0.00 0.00 0.00 50 1006.7
20260504003709 69 271 1.7 2.6 0.00 0.00 0.00 50 1006.8
20260504003207 69 269 1.7 3.5 0.00 0.00 0.00 49 1006.8
20260504002705 70 271 1.7 3.5 0.00 0.00 0.00 50 1006.8
20260504002413 70 287 0.9 2.6 0.00 0.00 0.00 47 1006.5
20260504002258 70 273 0.9 2.6 0.00 0.00 0.00 50 1006.8
20260504001203 70 289 1.7 3.5 0.00 0.00 0.00 47 1006.8
20260504000703 70 293 2.6 4.3 0.00 0.00 0.00 46 1006.9
20260504000204 71 295 3.5 6.1 0.00 0.00 0.00 46 1007.0
20260503235702 71 294 3.5 6.1 0.00 0.00 0.00 45 1007.0
20260503235201 71 296 3.5 6.1 0.00 0.00 0.00 47 1007.0
20260503234701 71 291 3.5 6.1 0.00 0.00 0.00 47 1006.9
20260503234201 71 287 2.6 4.3 0.00 0.00 0.00 44 1006.7
20260503233925 71 299 3.5 6.1 0.00 0.00 0.00 43 1006.5
20260503233206 71 299 5.2 8.7 0.00 0.00 0.00 44 1007.0
20260503232700 71 304 5.2 8.7 0.00 0.00 0.00 43 1007.1
20260503232201 71 287 4.3 8.7 0.00 0.00 0.00 44 1007.2
20260503231701 72 289 2.6 8.7 0.00 0.00 0.00 44 1007.1
20260503231155 72 304 3.5 7.8 0.00 0.00 0.00 44 1007.0
20260503230650 72 309 5.2 10.4 0.00 0.00 0.00 43 1007.1
20260503230143 72 286 5.2 10.4 0.00 0.00 0.00 44 1007.1
20260503225638 72 300 5.2 8.7 0.00 0.00 0.00 42 1006.9
20260503225132 72 281 5.2 8.7 0.00 0.00 0.00 43 1006.9
20260503224626 72 306 2.6 11.3 0.00 0.00 0.00 42 1006.8
20260503224119 72 286 0.0 11.3 0.00 0.00 0.00 42 1006.9
20260503223619 72 292 1.7 7.0 0.00 0.00 0.00 42 1007.1
20260503223342 72 275 4.3 9.6 0.00 0.00 0.00 43 1006.9
20260503222619 72 271 7.0 12.2 0.00 0.00 0.00 40 1006.9
20260503222119 72 290 7.8 12.2 0.00 0.00 0.00 41 1007.1
20260503221619 73 296 7.0 10.4 0.00 0.00 0.00 40 1007.1
20260503221117 73 262 7.0 10.4 0.00 0.00 0.00 39 1007.2
20260503220614 73 316 7.0 10.4 0.00 0.00 0.00 42 1007.0
20260503220114 73 289 7.0 10.4 0.00 0.00 0.00 42 1007.1
20260503215615 73 273 7.0 10.4 0.00 0.00 0.00 44 1007.2
20260503215116 72 261 5.2 9.6 0.00 0.00 0.00 47 1007.3
20260503214613 72 254 5.2 10.4 0.00 0.00 0.00 47 1007.1
20260503214111 72 242 6.1 10.4 0.00 0.00 0.00 44 1007.1
20260503213835 72 260 7.0 10.4 0.00 0.00 0.00 45 1007.5
20260503213112 72 259 7.0 10.4 0.00 0.00 0.00 47 1007.5
20260503212610 72 252 7.8 11.3 0.00 0.00 0.00 48 1007.3
20260503212108 71 244 8.7 13.9 0.00 0.00 0.00 48 1007.3
20260503211609 71 273 9.6 13.9 0.00 0.00 0.00 45 1007.2
20260503211108 71 241 8.7 14.8 0.00 0.00 0.00 45 1007.5
20260503210608 71 273 7.8 14.8 0.00 0.00 0.00 45 1007.5
20260503210108 71 250 7.0 10.4 0.00 0.00 0.00 48 1007.4
20260503205836 71 252 7.8 13.9 0.00 0.00 0.00 46 1007.6
20260503205108 71 254 7.8 13.9 0.00 0.00 0.00 45 1007.4
20260503204826 71 243 7.0 10.4 0.00 0.00 0.00 46 1007.3
20260503204109 71 244 7.8 11.3 0.00 0.00 0.00 46 1007.6
20260503203609 71 236 7.8 13.9 0.00 0.00 0.00 44 1008.0
20260503203109 71 279 7.8 13.9 0.00 0.00 0.00 44 1007.9
20260503202610 71 277 8.7 13.9 0.00 0.00 0.00 43 1007.8
20260503202108 71 254 8.7 13.9 0.00 0.00 0.00 40 1007.8
20260503201609 72 283 7.8 12.2 0.00 0.00 0.00 44 1008.1
20260503201109 72 263 8.7 14.8 0.00 0.00 0.00 44 1008.1